Location: Chervonnoye
(48.6000°N, 34.4000°E)
Time: 06:12:31
(UTC+00:00)

Cosmos 2278 Rocket - Pass Details

Date: 23 November 2020
Orbit: 839 x 847 km, 71.0° (Epoch: 18 January)

Event Time Altitude Azimuth Distance (km) Brightness Sun altitude
Rises 15:45:35 0° 327° (NNW) 3,415 5.7 -17.9°
Reaches altitude 10° 15:48:08 10° 320° (NW) 2,477 5.0 -18.3°
Maximum altitude 15:53:26 42° 252° (WSW) 1,196 3.5 -19.2°
Drops below altitude 10° 15:58:43 10° 183° (S) 2,464 4.8 -20.1°
Sets 16:01:16 0° 177° (S) 3,395 5.4 -20.5°
